This demonstration page uses our WeatherBlox Daily Observations layout. Learn more.

Left ArrowRight Arrow

Hourly Observations for July 4, 2018

Temp ( °F °C ) Dew Point ( °F °C ) Humidity (%) Winds ( mph kmh ) Pressure ( in mb ) Visibility ( mi km ) Precip ( " mm )
12:17 am 00:17 Clear 72 22 72 22 100 100 N N/A 30.18 1022 7 11.26538 N/A
12:37 am 00:37 Clear 72 22 72 22 100 100 N N/A 30.18 1022 10 16.0934 N/A
12:56 am 00:56 Clear 72 22 72 22 100 100 N N/A 30.18 1022 10 16.0934 N/A
1:17 am 01:17 Clear 70 21 70 21 100 100 N N/A 30.18 1022 10 16.0934 N/A
1:37 am 01:37 Clear 70 21 70 21 100 100 ESE 3 6 30.21 1023 7 11.26538 N/A
1:56 am 01:56 Clear 72 22 72 22 100 100 N N/A 30.18 1022 10 16.0934 N/A
2:17 am 02:17 Clear 72 22 72 22 100 100 N N/A 30.18 1022 10 16.0934 N/A
2:36 am 02:36 Clear 72 22 72 22 100 100 E 3 6 30.18 1022 10 16.0934 N/A
2:56 am 02:56 Clear 72 22 72 22 100 100 N N/A 30.18 1022 10 16.0934 N/A
3:17 am 03:17 Clear 72 22 72 22 100 100 N N/A 30.18 1022 7 11.26538 N/A
3:36 am 03:36 Clear 72 22 72 22 100 100 N N/A 30.18 1022 10 16.0934 N/A
3:57 am 03:57 Clear 72 22 72 22 100 100 N N/A 30.18 1022 10 16.0934 N/A
4:17 am 04:17 Clear 72 22 72 22 100 100 N N/A 30.18 1022 10 16.0934 N/A
4:36 am 04:36 Clear 70 21 70 21 100 100 N N/A 30.18 1022 7 11.26538 N/A
4:57 am 04:57 Clear 72 22 72 22 100 100 N N/A 30.21 1023 10 16.0934 N/A
5:17 am 05:17 Clear 72 22 72 22 100 100 N N/A 30.21 1023 10 16.0934 N/A
5:36 am 05:36 Clear 72 22 72 22 100 100 N N/A 30.21 1023 7 11.26538 N/A
5:57 am 05:57 Clear 72 22 72 22 100 100 N N/A 30.21 1023 10 16.0934 N/A
6:16 am 06:16 Partly Cloudy 72 22 72 22 100 100 N N/A 30.21 1023 10 16.0934 N/A
6:36 am 06:36 Mostly Cloudy 72 22 72 22 100 100 N N/A 30.21 1023 10 16.0934 N/A
6:57 am 06:57 Sunny 72 22 72 22 100 100 N N/A 30.21 1023 10 16.0934 N/A
7:17 am 07:17 Sunny 72 22 72 22 100 100 N N/A 30.21 1023 10 16.0934 N/A
7:36 am 07:36 Sunny 73 23 73 23 100 100 N N/A 30.18 1022 10 16.0934 N/A
7:57 am 07:57 Sunny 73 23 73 23 100 100 N N/A 30.18 1022 10 16.0934 N/A
8:16 am 08:16 Sunny 73 23 73 23 100 100 N N/A 30.24 1024 10 16.0934 N/A
8:36 am 08:36 Sunny 75 24 75 24 100 100 N N/A 30.21 1023 10 16.0934 N/A
8:57 am 08:57 Sunny 75 24 75 24 100 100 N N/A 30.21 1023 10 16.0934 N/A
9:16 am 09:16 Sunny 79 26 77 25 94 94 N N/A 30.21 1023 10 16.0934 N/A
9:36 am 09:36 Sunny 79 26 77 25 94 94 N N/A 30.21 1023 10 16.0934 N/A
9:57 am 09:57 Sunny 79 26 77 25 94 94 SE 3 6 30.21 1023 10 16.0934 N/A
10:16 am 10:16 Sunny 79 26 77 25 94 94 S 3 6 30.21 1023 10 16.0934 N/A
10:36 am 10:36 Sunny 81 27 79 26 94 94 S 3 6 30.21 1023 10 16.0934 N/A
10:57 am 10:57 Sunny 81 27 79 26 94 94 S 5 7 30.21 1023 10 16.0934 N/A
11:16 am 11:16 Sunny 82 28 79 26 89 89 S 5 7 30.21 1023 10 16.0934 N/A
11:36 am 11:36 Sunny 84 29 79 26 84 84 N N/A 30.21 1023 10 16.0934 N/A
11:56 am 11:56 Sunny 84 29 79 26 84 84 SSW 3 6 30.21 1023 10 16.0934 N/A
12:16 pm 12:16 Sunny 84 29 81 27 89 89 N N/A 30.21 1023 10 16.0934 N/A
12:37 pm 12:37 Sunny 86 30 81 27 84 84 N N/A 30.21 1023 10 16.0934 N/A
12:56 pm 12:56 Sunny 86 30 81 27 84 84 S 3 6 30.21 1023 10 16.0934 N/A
1:16 pm 13:16 Sunny 88 31 81 27 79 79 N N/A 30.21 1023 10 16.0934 N/A
1:37 pm 13:37 Sunny 88 31 81 27 79 79 S 5 7 30.21 1023 10 16.0934 N/A
1:56 pm 13:56 Partly Cloudy 90 32 81 27 75 75 SSW 5 7 30.21 1023 10 16.0934 N/A
2:16 pm 14:16 Sunny 90 32 81 27 75 75 S 7 11 30.21 1023 10 16.0934 N/A
2:37 pm 14:37 Partly Cloudy 88 31 81 27 79 79 S 5 7 30.21 1023 10 16.0934 N/A
2:56 pm 14:56 Sunny 88 31 79 26 75 75 S 8 13 30.18 1022 10 16.0934 N/A
3:16 pm 15:16 Sunny 88 31 79 26 75 75 S 5 7 30.18 1022 10 16.0934 N/A
3:37 pm 15:37 Sunny 90 32 81 27 75 75 S 7 11 30.18 1022 10 16.0934 N/A
3:56 pm 15:56 Partly Cloudy 90 32 82 28 79 79 N N/A 30.18 1022 10 16.0934 N/A
4:17 pm 16:17 Partly Cloudy 90 32 81 27 75 75 ESE 5 7 30.18 1022 10 16.0934 N/A
4:36 pm 16:36 Partly Cloudy 90 32 81 27 75 75 SSW 6 9 30.18 1022 10 16.0934 N/A
4:56 pm 16:56 Mostly Cloudy 90 32 81 27 75 75 SSE 6 9 30.18 1022 10 16.0934 N/A
5:17 pm 17:17 Mostly Cloudy 88 31 81 27 79 79 NNE 5 7 30.18 1022 10 16.0934 N/A
5:36 pm 17:36 Cloudy 84 29 82 28 94 94 NNE 15 24 30.18 1022 7 11.26538 N/A
5:57 pm 17:57 Mostly Cloudy 75 24 73 23 94 94 E 12 19 30.18 1022 10 16.0934 N/A
6:17 pm 18:17 Cloudy 75 24 75 24 100 100 WNW 30 48 30.18 1022 1.5 2.41401 N/A
6:36 pm 18:36 Cloudy 73 23 73 23 100 100 NNW 5 7 30.18 1022 2.5 4.02335 N/A
6:57 pm 18:57 Cloudy 75 24 75 24 100 100 WNW 9 15 30.18 1022 5 8.0467 N/A
7:17 pm 19:17 Cloudy 75 24 75 24 100 100 W 6 9 30.18 1022 10 16.0934 N/A
7:36 pm 19:36 Mostly Cloudy 77 25 77 25 100 100 N N/A 30.15 1021 10 16.0934 N/A
7:57 pm 19:57 Partly Cloudy 77 25 77 25 100 100 N N/A 30.15 1021 10 16.0934 N/A
8:17 pm 20:17 Partly Cloudy 77 25 77 25 100 100 E 5 7 30.15 1021 10 16.0934 N/A
8:36 pm 20:36 Mostly Cloudy 77 25 77 25 100 100 ESE 3 6 30.18 1022 10 16.0934 N/A
8:57 pm 20:57 Partly Cloudy 75 24 75 24 100 100 N N/A 30.18 1022 10 16.0934 N/A
9:17 pm 21:17 Clear 75 24 75 24 100 100 E 3 6 30.18 1022 10 16.0934 N/A
9:36 pm 21:36 Clear 75 24 75 24 100 100 N N/A 30.18 1022 10 16.0934 N/A
9:57 pm 21:57 Clear 77 25 77 25 100 100 N N/A 30.18 1022 10 16.0934 N/A
10:17 pm 22:17 Clear 77 25 77 25 100 100 N N/A 30.21 1023 10 16.0934 N/A
10:36 pm 22:36 Clear 75 24 75 24 100 100 N N/A 30.21 1023 10 16.0934 N/A
10:57 pm 22:57 Clear 75 24 75 24 100 100 N N/A 30.21 1023 10 16.0934 N/A
11:16 pm 23:16 Clear 75 24 75 24 100 100 N N/A 30.21 1023 10 16.0934 N/A
11:37 pm 23:37 Clear 75 24 75 24 100 100 N N/A 30.21 1023 10 16.0934 N/A
11:57 pm 23:57 Clear 73 23 73 23 100 100 N N/A 30.24 1024 10 16.0934 N/A

Powered by AerisWeather